Location: Newark
(13.8117°N, 3.6025°W)
Time: 13:49:11
(UTC+00:00)

Vanguard 2 - Pass Details

Date: 25 August 2019
Orbit: 554 x 2937 km, 32.9° (Epoch: 19 September)

Event Time Altitude Azimuth Distance (km) Brightness Sun altitude
Rises 10:10:06 0° 253° (WSW) 2,714 10.1 59.0°
Reaches altitude 10° 10:12:18 10° 261° (W) 1,827 9.3 59.5°
Maximum altitude 10:16:05 43° 333° (NNW) 857 8.2 60.4°
Drops below altitude 10° 10:20:49 10° 46° (NE) 2,274 10.4 61.6°
Sets 10:23:51 0° 52° (NE) 3,486 11.2 62.3°
